Weather History for Pittsfield, MA

Change the Weather History Date:

Tuesday, January 22, 2013

  Actual Average Record
Temperature  
Mean Temperature 11 °F 20 °F  
Max Temperature 17 °F 29 °F 56 °F (1959)
Min Temperature 4 °F 11 °F -16 °F (1961)
Degree Days  
Heating Degree Days 54 45  
Month to date heating degree days 869 983  
Since 1 July heating degree days 3405 3821  
Cooling Degree Days 0 0  
Month to date cooling degree days 0 0  
Year to date cooling degree days 0 0  
Moisture  
Dew Point 4 °F    
Average Humidity 63    
Maximum Humidity 84    
Minimum Humidity 42    
Precipitation  
Precipitation T in 0.08 in 0.85 in (1958)
Month to date precipitation 0.61 2.15  
Year to date precipitation 0.61 2.15  
Sea Level Pressure  
Sea Level Pressure 29.90 in    
Wind  
Wind Speed 13 mph (WNW)    
Max Wind Speed 24 mph    
Max Gust Speed 31 mph    
Visibility 5 miles    
Events Snow    
T = Trace of Precipitation, MM = Missing Value Source: NWS Daily Summary

Daily Weather History Graph

Daily Weather History Graph

Search for Another Location

Airport:

Trip Planner

Search our weather history database for the weather conditions in past years. The results will help you decide how hot, cold, wet, or windy it might be!

Date:

Astronomy

Jan. 22, 2013 Rise Set
Actual Time 7:15 AM EST 4:54 PM EST
Civil Twilight 6:45 AM EST 5:25 PM EST
Nautical Twilight 6:10 AM EST 5:59 PM EST
Astronomical Twilight 5:37 AM EST 6:32 PM EST
Moon 1:14 PM EST (1/22) 3:35 AM EST (1/22)
Length of Visible Light 10h 40m
Length of Day
9h 38m
Waxing Gibbous, 82% of the Moon is Illuminated
Jan 22
Waxing Gibbous
Jan 26
Full
Feb 3
Last Quarter
Feb 10
New
Feb 17
First Quarter

Hourly Weather History & Observations

Time (EST) Temp. Windchill Dew Point Humidity Pressure Visibility Wind Dir Wind Speed Gust Speed Precip Events Conditions
12:02 AM 15.8 °F 10.2 °F 14.0 °F 93% 29.70 in 2.5 mi WNW 3.5 mph - 0.00 in Snow Light Snow
12:12 AM 15.8 °F 10.2 °F 12.2 °F 86% 29.70 in 1.0 mi West 3.5 mph - 0.00 in Snow Light Snow
12:16 AM 15.8 °F 7.2 °F 12.2 °F 86% 29.70 in 0.8 mi West 5.8 mph - 0.00 in Snow Light Snow
12:22 AM 15.8 °F 6.1 °F 12.2 °F 86% 29.70 in 1.0 mi WSW 6.9 mph - 0.00 in Snow Light Snow
12:47 AM 17.6 °F 5.0 °F 14.0 °F 86% 29.69 in 2.5 mi WNW 11.5 mph - 0.00 in Snow Light Snow
12:54 AM 17.1 °F 6.6 °F 14.0 °F 88% 29.76 in 2.5 mi WNW 8.1 mph - 0.00 in Snow Light Snow
12:56 AM 17.6 °F 6.4 °F 14.0 °F 86% 29.70 in 3.0 mi WNW 9.2 mph - 0.00 in Snow Light Snow
1:35 AM 15.8 °F 3.4 °F 12.2 °F 86% 29.71 in 10.0 mi WNW 10.4 mph - 0.00 in   Mostly Cloudy
1:54 AM 17.1 °F 5.0 °F 12.9 °F 84% 29.78 in 10.0 mi WNW 10.4 mph - 0.00 in   Overcast
2:54 AM 15.1 °F 4.2 °F 10.0 °F 80% 29.79 in 10.0 mi WNW 8.1 mph 17.3 mph 0.00 in   Overcast
3:54 AM 15.1 °F -0.6 °F 8.1 °F 74% 29.81 in 10.0 mi West 16.1 mph 20.7 mph N/A   Overcast
4:54 AM 14.0 °F -3.4 °F 8.1 °F 77% 29.83 in 3.0 mi WNW 19.6 mph 29.9 mph 0.00 in Snow Light Snow
4:58 AM 14.0 °F -1.4 °F 8.6 °F 79% 29.76 in 1.8 mi WNW 15.0 mph 29.9 mph 0.00 in Snow Light Snow
5:06 AM 14.0 °F -3.0 °F 6.8 °F 73% 29.76 in 3.0 mi WNW 18.4 mph 21.9 mph 0.00 in Snow Light Snow
5:13 AM 12.2 °F -5.8 °F 6.8 °F 79% 29.76 in 8.0 mi WNW 19.6 mph 24.2 mph 0.00 in   Overcast
5:54 AM 12.0 °F -2.0 °F 5.0 °F 73% 29.86 in 10.0 mi WNW 11.5 mph - 0.00 in   Scattered Clouds
6:54 AM 10.9 °F -3.4 °F 1.0 °F 64% 29.89 in 10.0 mi West 11.5 mph - N/A   Scattered Clouds
7:54 AM 10.9 °F -5.4 °F -6.0 °F 47% 29.90 in 10.0 mi West 15.0 mph 20.7 mph N/A   Clear
8:54 AM 12.0 °F -4.5 °F -7.1 °F 42% 29.92 in 10.0 mi WNW 16.1 mph 25.3 mph N/A   Clear
9:54 AM 12.9 °F -2.2 °F -5.1 °F 45% 29.93 in 10.0 mi WNW 13.8 mph - N/A   Clear
10:54 AM 14.0 °F -2.5 °F -6.0 °F 41% 29.93 in 10.0 mi West 17.3 mph 29.9 mph N/A   Mostly Cloudy
11:54 AM 14.0 °F -0.8 °F -5.1 °F 43% 29.92 in 10.0 mi WNW 13.8 mph 23.0 mph N/A   Scattered Clouds
12:54 PM 14.0 °F 0.5 °F -4.0 °F 45% 29.91 in 10.0 mi West 11.5 mph 21.9 mph N/A   Overcast
1:54 PM 14.0 °F -2.5 °F -5.1 °F 43% 29.90 in 10.0 mi WNW 17.3 mph 29.9 mph N/A   Mostly Cloudy
2:54 PM 15.1 °F -2.0 °F -2.9 °F 45% 29.93 in 10.0 mi West 19.6 mph 31.1 mph N/A   Overcast
3:54 PM 12.0 °F -2.7 °F -0.9 °F 56% 29.96 in 10.0 mi WNW 12.7 mph 21.9 mph N/A   Overcast
4:54 PM 10.9 °F -4.1 °F 1.9 °F 67% 29.99 in 10.0 mi WNW 12.7 mph 19.6 mph 0.00 in   Overcast
5:49 PM 10.4 °F -7.7 °F 3.2 °F 73% 29.93 in 1.8 mi WNW 18.4 mph 26.5 mph 0.00 in Snow Light Snow
5:54 PM 10.0 °F -5.9 °F 3.9 °F 76% 30.02 in 1.2 mi WNW 13.8 mph 26.5 mph 0.00 in Snow Light Snow
6:15 PM 10.4 °F -4.1 °F 6.8 °F 85% 29.94 in 0.8 mi WNW 11.5 mph - 0.00 in Snow Light Snow
6:30 PM 8.6 °F -6.3 °F 5.0 °F 85% 29.95 in 0.8 mi NW 11.5 mph 21.9 mph 0.00 in Snow Light Snow
6:40 PM 8.6 °F -7.7 °F 3.2 °F 79% 29.95 in 1.5 mi NW 13.8 mph 20.7 mph 0.00 in Snow Light Snow
6:54 PM 9.0 °F -6.6 °F 5.0 °F 84% 30.05 in 0.8 mi WNW 12.7 mph 17.3 mph 0.00 in Snow Light Snow
7:01 PM 8.6 °F -5.5 °F 3.2 °F 79% 29.96 in 1.8 mi NW 10.4 mph - 0.00 in Snow Light Snow
7:09 PM 8.6 °F -4.7 °F 3.2 °F 79% 29.96 in 2.0 mi WNW 9.2 mph - 0.00 in Snow Light Snow
7:17 PM 8.6 °F -4.7 °F 5.0 °F 85% 29.96 in 1.0 mi NW 9.2 mph - 0.00 in Snow Light Snow
7:24 PM 8.6 °F -5.5 °F 3.2 °F 79% 29.96 in 0.8 mi NW 10.4 mph - 0.00 in Snow Light Snow
7:28 PM 8.6 °F -4.7 °F 3.2 °F 79% 29.96 in 1.0 mi WNW 9.2 mph - 0.00 in Snow Light Snow
7:54 PM 9.0 °F -5.1 °F 5.0 °F 84% 30.06 in 0.8 mi WNW 10.4 mph 17.3 mph 0.00 in Snow Light Snow
8:06 PM 8.6 °F -2.6 °F 5.0 °F 85% 29.96 in 1.2 mi West 6.9 mph - 0.00 in Snow Light Snow
8:27 PM 8.6 °F -6.3 °F 3.2 °F 79% 29.97 in 3.0 mi WNW 11.5 mph - 0.00 in Snow Light Snow
8:34 PM 8.6 °F -7.7 °F 1.4 °F 73% 29.97 in 5.0 mi WNW 13.8 mph - 0.00 in Snow Light Snow
8:54 PM 8.1 °F -6.2 °F 3.0 °F 80% 30.07 in 3.0 mi West 10.4 mph - 0.00 in Snow Light Snow
9:25 PM 6.8 °F -7.8 °F 1.4 °F 79% 29.98 in 10.0 mi West 10.4 mph - 0.00 in   Mostly Cloudy
9:54 PM 6.1 °F -9.5 °F -6.0 °F 58% 30.08 in 10.0 mi West 11.5 mph - 0.00 in   Partly Cloudy
10:54 PM 5.0 °F -10.8 °F -8.0 °F 55% 30.09 in 10.0 mi West 11.5 mph - N/A   Clear
11:54 PM 3.9 °F -11.3 °F -8.0 °F 58% 30.09 in 10.0 mi West 10.4 mph - N/A   Clear